Preview of NWS' New Version of Forecast
This preview is not operational and should not be used for support decisions.

Regional Weather Roundup (RWR)

Issued by National Weather Service (NWS)

                            
000
ASUS44 KMEG 181900
RWRTN 
TENNESSEE HOURLY STATE WEATHER ROUNDUP
NATIONAL WEATHER SERVICE MEMPHIS TN
200 PM CDT THU APR 18 2019

TNZ002-004-019-021-049-052-054-088>092-182000-
WEST TENNESSEE
  
CITY           SKY/WX    TMP DP  RH WIND       PRES   REMARKS
MEMPHIS INTL   CLOUDY    67  64  90 S9        29.71F                  
NWS MEMPHIS      N/A     66 N/A N/A MISG        N/A                   
JACKSON        CLOUDY    67  63  87 S10       29.72F                  
DYERSBURG      LGT RAIN  65  63  93 S3        29.71F                  
$$

TNZ008-025-027-028-033-062-065-066-182000-
NORTH MIDDLE TENNESSEE
  
CITY           SKY/WX    TMP DP  RH WIND       PRES   REMARKS
NASHVILLE      CLOUDY    77  56  48 S23G29    29.74F                  
CLARKSVILLE    CLOUDY    71  58  63 S13       29.71F                  
SMYRNA         FAIR      77  60  55 S17G26    29.75F                  
CROSSVILLE     FAIR      72  53  51 S10G22    29.86F                  
$$

TNZ061-075-076-078-094-096-097-182000-
SOUTH MIDDLE TENNESSEE
  
CITY           SKY/WX    TMP DP  RH WIND       PRES   REMARKS
$$

TNZ017-018-042-046-047-182000-
NORTHEAST TENNESSEE
  
CITY           SKY/WX    TMP DP  RH WIND       PRES   REMARKS
TRI CITIES     FAIR      83  40  21 SW21G30   29.85F                  
$$

TNZ012-013-036-069-073-074-182000-
CENTRAL EAST TENNESSEE
  
CITY           SKY/WX    TMP DP  RH WIND       PRES   REMARKS
KNOXVILLE      PTSUNNY   80  54  40 SW22G28   29.84F                  
OAK RIDGE      FAIR      79  51  37 SW12G25   29.86F                  
$$

TNZ083-085-099-182000-
SOUTHEAST TENNESSEE
  
CITY           SKY/WX    TMP DP  RH WIND       PRES   REMARKS
CHATTANOOGA    PTSUNNY   77  53  43 S12G20    29.85F                  
$$

SKY/WX REPORTED AS FAIR MEANS FEW OR NO CLOUDS BELOW
12 THOUSAND FEET.